Previsão horária em Taul

Hoje, 1 Agosto, Domingo

Tempo Temperatura Precipitação Vento Pressão Humidade
00:00 +23°C° 0.2 mm 2 m/s 737 mmHg 63%
01:00 +23°C° 0.2 mm 1 m/s 737 mmHg 69%
02:00 +22°C° 0 mm 1 m/s 737 mmHg 75%
03:00 +20°C° 0.1 mm 2 m/s 737 mmHg 77%
04:00 +20°C° 0.1 mm 2 m/s 737 mmHg 80%
05:00 +20°C° 0.1 mm 2 m/s 737 mmHg 82%
06:00 +21°C° 0 mm 2 m/s 738 mmHg 79%
07:00 +22°C° 0 mm 3 m/s 738 mmHg 75%
08:00 +25°C° 0 mm 4 m/s 738 mmHg 70%
09:00 +26°C° 0 mm 4 m/s 739 mmHg 65%
10:00 +27°C° 0 mm 3 m/s 739 mmHg 60%
11:00 +29°C° 0 mm 3 m/s 739 mmHg 55%
12:00 +30°C° 0 mm 3 m/s 739 mmHg 52%
13:00 +31°C° 0 mm 3 m/s 739 mmHg 48%
14:00 +31°C° 0 mm 2 m/s 739 mmHg 46%
15:00 +31°C° 0 mm 2 m/s 738 mmHg 44%
16:00 +31°C° 0 mm 1 m/s 738 mmHg 43%
17:00 +31°C° 0 mm 1 m/s 738 mmHg 41%
18:00 +29°C° 0 mm 1 m/s 738 mmHg 45%
19:00 +28°C° 0 mm 2 m/s 738 mmHg 49%
20:00 +26°C° 0 mm 2 m/s 738 mmHg 53%
21:00 +26°C° 0 mm 2 m/s 737 mmHg 54%
22:00 +25°C° 0 mm 3 m/s 737 mmHg 55%
23:00 +24°C° 0 mm 3 m/s 737 mmHg 56%

Amanhã, 2 Agosto, Segunda-feira

Tempo Temperatura Precipitação Vento Pressão Humidade
00:00 +24°C° 0 mm 3 m/s 737 mmHg 57%
01:00 +24°C° 0 mm 3 m/s 736 mmHg 58%
02:00 +24°C° 0 mm 3 m/s 736 mmHg 59%
03:00 +24°C° 0 mm 3 m/s 736 mmHg 60%
04:00 +24°C° 0 mm 3 m/s 735 mmHg 62%
05:00 +22°C° 0 mm 4 m/s 735 mmHg 64%
06:00 +25°C° 0 mm 4 m/s 735 mmHg 59%
07:00 +27°C° 0 mm 4 m/s 735 mmHg 55%
08:00 +29°C° 0 mm 4 m/s 735 mmHg 51%
09:00 +30°C° 0 mm 4 m/s 736 mmHg 47%
10:00 +32°C° 0 mm 4 m/s 736 mmHg 43%
11:00 +33°C° 0 mm 3 m/s 736 mmHg 40%
12:00 +32°C° 0.9 mm 4 m/s 736 mmHg 49%
13:00 +29°C° 0.9 mm 6 m/s 737 mmHg 58%
14:00 +27°C° 0.9 mm 7 m/s 737 mmHg 68%
15:00 +27°C° 0.3 mm 6 m/s 737 mmHg 64%
16:00 +28°C° 0.3 mm 5 m/s 737 mmHg 60%
17:00 +28°C° 0.3 mm 5 m/s 737 mmHg 56%
18:00 +27°C° 0 mm 5 m/s 738 mmHg 60%
19:00 +25°C° 0 mm 5 m/s 738 mmHg 64%
20:00 +23°C° 0 mm 5 m/s 739 mmHg 67%
21:00 +21°C° 0 mm 4 m/s 739 mmHg 70%
22:00 +20°C° 0 mm 4 m/s 740 mmHg 73%
23:00 +19°C° 0 mm 3 m/s 740 mmHg 75%

Depois de amanhã, 3 Agosto, Terça-feira

Tempo Temperatura Precipitação Vento Pressão Humidade
00:00 +18°C° 0 mm 3 m/s 741 mmHg 77%
01:00 +17°C° 0 mm 3 m/s 741 mmHg 79%
02:00 +17°C° 0 mm 2 m/s 741 mmHg 81%
03:00 +16°C° 0 mm 2 m/s 741 mmHg 82%
04:00 +16°C° 0 mm 2 m/s 742 mmHg 84%
05:00 +15°C° 0 mm 2 m/s 742 mmHg 85%
06:00 +17°C° 0 mm 2 m/s 742 mmHg 79%
07:00 +18°C° 0 mm 2 m/s 742 mmHg 73%
08:00 +20°C° 0 mm 2 m/s 743 mmHg 66%
09:00 +21°C° 0 mm 2 m/s 743 mmHg 61%
10:00 +24°C° 0 mm 3 m/s 743 mmHg 55%
11:00 +25°C° 0 mm 3 m/s 743 mmHg 50%
12:00 +26°C° 0 mm 2 m/s 743 mmHg 47%
13:00 +27°C° 0 mm 2 m/s 743 mmHg 44%
14:00 +28°C° 0 mm 2 m/s 742 mmHg 42%
15:00 +28°C° 0 mm 2 m/s 742 mmHg 42%
16:00 +28°C° 0 mm 2 m/s 742 mmHg 42%
17:00 +27°C° 0 mm 2 m/s 742 mmHg 42%
18:00 +26°C° 0 mm 2 m/s 742 mmHg 48%
19:00 +24°C° 0 mm 2 m/s 742 mmHg 53%
20:00 +21°C° 0 mm 2 m/s 742 mmHg 59%
21:00 +21°C° 0 mm 2 m/s 743 mmHg 60%
22:00 +20°C° 0 mm 2 m/s 743 mmHg 62%
23:00 +20°C° 0 mm 2 m/s 743 mmHg 63%

4 Agosto, Quarta-feira

Tempo Temperatura Precipitação Vento Pressão Humidade
00:00 +19°C° 0 mm 2 m/s 743 mmHg 64%
01:00 +19°C° 0 mm 2 m/s 743 mmHg 65%
02:00 +18°C° 0 mm 2 m/s 743 mmHg 66%
03:00 +18°C° 0 mm 2 m/s 742 mmHg 68%
04:00 +18°C° 0 mm 2 m/s 742 mmHg 70%
05:00 +17°C° 0 mm 2 m/s 742 mmHg 72%
06:00 +18°C° 0.1 mm 2 m/s 742 mmHg 72%
07:00 +19°C° 0.1 mm 3 m/s 742 mmHg 71%
08:00 +20°C° 0.1 mm 3 m/s 742 mmHg 70%
09:00 +21°C° 0.1 mm 4 m/s 742 mmHg 68%
10:00 +23°C° 0.1 mm 5 m/s 742 mmHg 65%
11:00 +24°C° 0.1 mm 6 m/s 742 mmHg 62%
12:00 +26°C° 0 mm 6 m/s 742 mmHg 58%
13:00 +28°C° 0 mm 5 m/s 742 mmHg 54%
14:00 +29°C° 0 mm 5 m/s 742 mmHg 50%
15:00 +28°C° 0.4 mm 5 m/s 741 mmHg 54%
16:00 +27°C° 0.4 mm 5 m/s 741 mmHg 58%
17:00 +26°C° 0.4 mm 6 m/s 741 mmHg 62%
18:00 +23°C° 0.9 mm 4 m/s 741 mmHg 69%
19:00 +21°C° 0.9 mm 3 m/s 741 mmHg 76%
20:00 +20°C° 0.9 mm 2 m/s 741 mmHg 83%
21:00 +20°C° 0 mm 2 m/s 741 mmHg 82%
22:00 +20°C° 0 mm 3 m/s 741 mmHg 82%
23:00 +20°C° 0 mm 3 m/s 741 mmHg 82%

5 Agosto, Quinta-feira

Tempo Temperatura Precipitação Vento Pressão Humidade
00:00 +19°C° 0 mm 3 m/s 741 mmHg 85%
01:00 +19°C° 0 mm 2 m/s 741 mmHg 88%
02:00 +18°C° 0 mm 2 m/s 740 mmHg 91%
03:00 +18°C° 0 mm 2 m/s 740 mmHg 92%
04:00 +18°C° 0 mm 3 m/s 740 mmHg 92%
05:00 +18°C° 0 mm 3 m/s 740 mmHg 93%
06:00 +19°C° 0 mm 3 m/s 740 mmHg 86%
07:00 +21°C° 0 mm 4 m/s 740 mmHg 78%
08:00 +23°C° 0 mm 5 m/s 740 mmHg 71%
09:00 +25°C° 0 mm 4 m/s 740 mmHg 64%
10:00 +27°C° 0 mm 4 m/s 740 mmHg 57%
11:00 +29°C° 0 mm 4 m/s 740 mmHg 50%
12:00 +30°C° 0 mm 3 m/s 739 mmHg 46%
13:00 +33°C° 0 mm 3 m/s 739 mmHg 42%
14:00 +34°C° 0 mm 2 m/s 739 mmHg 39%
15:00 +33°C° 0.1 mm 3 m/s 738 mmHg 42%
16:00 +31°C° 0.1 mm 3 m/s 738 mmHg 46%
17:00 +30°C° 0.1 mm 3 m/s 738 mmHg 50%
18:00 +28°C° 0.2 mm 3 m/s 737 mmHg 56%
19:00 +27°C° 0.2 mm 3 m/s 736 mmHg 61%
20:00 +25°C° 0.2 mm 4 m/s 736 mmHg 66%
21:00 +24°C° 0.6 mm 6 m/s 736 mmHg 68%
22:00 +23°C° 0.6 mm 8 m/s 737 mmHg 70%
23:00 +23°C° 0.6 mm 9 m/s 737 mmHg 73%

6 Agosto, Sexta-feira

Tempo Temperatura Precipitação Vento Pressão Humidade
00:00 +22°C° 0.3 mm 8 m/s 737 mmHg 77%
01:00 +20°C° 0.3 mm 6 m/s 736 mmHg 81%
02:00 +19°C° 0.3 mm 4 m/s 735 mmHg 85%
03:00 +19°C° 0 mm 3 m/s 735 mmHg 86%
04:00 +19°C° 0 mm 3 m/s 735 mmHg 87%
05:00 +19°C° 0 mm 3 m/s 736 mmHg 88%
06:00 +20°C° 0.1 mm 3 m/s 736 mmHg 85%
07:00 +21°C° 0.1 mm 2 m/s 736 mmHg 82%
08:00 +23°C° 0.1 mm 2 m/s 736 mmHg 79%
09:00 +24°C° 0.1 mm 2 m/s 736 mmHg 71%
10:00 +26°C° 0.1 mm 2 m/s 736 mmHg 63%
11:00 +28°C° 0.1 mm 2 m/s 736 mmHg 55%
12:00 +28°C° 0 mm 2 m/s 736 mmHg 51%
13:00 +29°C° 0 mm 2 m/s 736 mmHg 48%
14:00 +30°C° 0 mm 2 m/s 736 mmHg 44%
15:00 +29°C° 0 mm 2 m/s 736 mmHg 47%
16:00 +29°C° 0 mm 3 m/s 736 mmHg 49%
17:00 +28°C° 0 mm 3 m/s 736 mmHg 51%
18:00 +26°C° 2.1 mm 3 m/s 736 mmHg 63%
19:00 +24°C° 2.1 mm 2 m/s 737 mmHg 75%
20:00 +20°C° 2.1 mm 2 m/s 737 mmHg 87%
21:00 +20°C° 0.4 mm 2 m/s 737 mmHg 87%
22:00 +20°C° 0.4 mm 2 m/s 738 mmHg 87%
23:00 +19°C° 0.4 mm 2 m/s 738 mmHg 87%
Mostrar mais

Necessitamos do seu Consentimento

A Meteoprog e os seus Fornecedores de Serviços podem armazenar e aceder a dados pessoais como cookies, identificadores do dispositivo ou outras tecnologias semelhantes existentes no seu dispositivo e processar estes dados para personalizar conteúdos e anúncios, assim como funcionalidades nas redes sociais e análise de tráfego.

  • Armazenar e/ou aceder a informações no seu dispositivo

    Os cookies, identificadores do dispositivo ou outras informações podem ser armazenados ou acedidos no seu dispositivo, para os fins acima indicados.

  • Anúncios e conteúdos personalizados, medição de anúncios e conteúdos, dados sobre o público-alvo e desenvolvimento de produtos

    Os anúncios e os conteúdos podem ser personalizados com base num perfil. Podem ser adicionados dados adicionais para uma maior personalização dos anúncios e dos conteúdos. A eficácia dos anúncios e dos conteúdos pode ser medida. Podem ser obtidas informações sobre o público que visualizou os anúncios e os conteúdos. Estes dados podem ser usados para desenvolver ou melhorar sistemas, softwares ou a experiência do utilizador.

Ao clicar em "Eu concordo”, permitirá o uso de cookies, identificadores do dispositivo e web beacons mencionados ou outras tecnologias semelhantes. As configurações do navegador do seu dispositivo podem ser alteradas.

Para certos fins, podem ser invocados interesses legítimos ao invés de consentimento. Pode ler mais informação sobre este assunto na nossa Política de Privacidade e Cookies.